Weather Roundup
Issued by NWS Springfield, MO

Home | Current Version | Previous Version | Text Only | Print | Product List | Glossary On
Versions: 1 2 3 4 5 6 7 8 9 10 11 12 13 14 15 16 17 18 19 20 21 22 23 24 25 26 27 28 29 30 31 32 33 34 35 36 37 38 39 40 41 42 43 44 45 46 47 48 49 50
000
NZUS99 KSGF 062259
HRRSGF

HOURLY WEATHER
NATIONAL WEATHER SERVICE SPRINGFIELD MO
600 PM CDT MON JUL 06 2015

......SGF CWA......

CITY           SKY/WX    TMP DP  RH WIND       PRES   REMARKS
SPRINGFIELD    PTSUNNY   83  72  69 S14       29.93R
JOPLIN         MOSUNNY   84  74  71 S14G21    29.90R HX  91
WEST PLAINS    PTSUNNY   82  71  69 S9G20     29.97F
ROLLA          SUNNY     84  73  69 SW12      29.92R HX  90
OSAGE BEACH    MOSUNNY   84  72  65 S8        29.91R
BRANSON        PTSUNNY   81  73  78 SW5       29.96S

......SURROUNDING SGF CWA......

CITY           SKY/WX    TMP DP  RH WIND       PRES   REMARKS
CHANUTE        CLOUDY    84  74  71 S9        29.87R HX  91
PARSONS        CLOUDY    85  75  72 S8G16     29.87R HX  93
COFFEYVILLE    PTSUNNY   86  74  67 S12G21    29.85S HX  94
EMPORIA        TSTM      70  69  97 CALM      29.88F
GROVE OK       MOSUNNY   86  73  66 S12G20    29.90F HX  93
SILOAM SPRINGS PTSUNNY   82  72  69 SW15      29.97R
HARRISON AR    MOSUNNY   82  72  71 S9        29.97R
NEAR YELLVILLE   N/A     88  72  58 SW8       29.92F HX  94

......KANSAS AND MISSOURI......

CITY           SKY/WX    TMP DP  RH WIND       PRES   REMARKS
KANSAS CTY INT TSTM      72  71  97 SW8       29.90R FOG
DOWNTOWN KC    TSTM      72  71  97 NE15G30   29.89R VSB 1/2
COLUMBIA       PTSUNNY   84  74  71 S9        29.89R HX  91
SEDALIA        CLOUDY    84  74  71 S10       29.89R HX  91
ST JOSEPH      LGT RAIN  73  71  93 MISG      29.87R
ST LOUIS       PTSUNNY   84  70  62 S9        29.89F
SPIRIT OF STL  MOSUNNY   84  74  71 S7        29.88F HX  91
KIRKSVILLE     LGT RAIN  77  74  90 S3        29.86R FOG
WICHITA        TSTM      75  72  90 VRB3      29.86R FOG
TOPEKA         RAIN      72  70  93 NE7       29.89R FOG
OLATHE         TSTM      70  69  97 S14G33    29.87R VSB 1/2

......TENNESSEE......

CITY           SKY/WX    TMP DP  RH WIND       PRES   REMARKS
MEMPHIS        PTSUNNY   85  73  67 S13       30.03F HX  91
NASHVILLE      PTSUNNY   85  71  63 S9        30.06F HX  90

......ARKANSAS.......

CITY           SKY/WX    TMP DP  RH WIND       PRES   REMARKS
FAYETTEVILLE   MOSUNNY   82  73  74 S16G25    29.96R
FT SMITH       MOSUNNY   86  70  58 S13G23    29.91F HX  90
LITTLE ROCK    PTSUNNY   87  72  60 S9        29.96F HX  93

......OKLAHOMA.......

CITY           SKY/WX    TMP DP  RH WIND       PRES   REMARKS
TULSA          PTSUNNY   88  75  65 S18G28    29.82F HX  97
PONCA CITY     MOSUNNY   92  72  51 S9G25     29.80S HX  99
MCALESTER      MOSUNNY   87  72  60 S9G23     29.89F HX  93
OKLAHOMA CITY  PTSUNNY   88  74  63 S21G28    29.83F HX  96

......IOWA............

CITY           SKY/WX    TMP DP  RH WIND       PRES   REMARKS
DES MOINES     CLOUDY    73  68  84 N14G22    29.88R
QUAD CITIES    CLOUDY    72  68  87 E9        29.81F

......ILLINOIS........

CITY           SKY/WX    TMP DP  RH WIND       PRES   REMARKS
QUINCY         PTSUNNY   85  74  69 S9        29.84S HX  92
CHICAGO        PTSUNNY   81  72  74 S14       29.85F




USA.gov is the U.S. government's official web portal to all federal, state and local government web resources and services.